This is the latest recevied weather packets stored in our database for station/object DB0LS-15. If no packets are shown the sender has not sent any weather packets the latest 10 day(s).
| Time | Temp. | Humidity | Pressure | Rain* | Wind** | Luminosity | Snow |
|---|---|---|---|---|---|---|---|
| 1777925756 | 17.78° C | 66% | 993.5 hPa | 0 mm | - | - | - |
| 1777925152 | 18.33° C | 65% | 993.3 hPa | 0 mm | - | - | - |
| 1777924549 | 18.33° C | 64% | 993.2 hPa | 0 mm | - | - | - |
| 1777923945 | 18.33° C | 64% | 993.3 hPa | 0 mm | - | - | - |
| 1777923341 | 18.33° C | 64% | 993.4 hPa | 0 mm | - | - | - |
| 1777922737 | 17.78° C | 65% | 993.3 hPa | 0 mm | - | - | - |
| 1777922134 | 18.89° C | 62% | 993.3 hPa | 0 mm | - | - | - |
| 1777921530 | 18.89° C | 62% | 993.3 hPa | 0 mm | - | - | - |
| 1777920926 | 18.89° C | 62% | 993.3 hPa | 0 mm | - | - | - |
| 1777920322 | 18.89° C | 62% | 993.2 hPa | 0 mm | - | - | - |
| 1777919718 | 18.89° C | 63% | 993.2 hPa | 0 mm | - | - | - |
| 1777919175 | 19.44° C | 61% | 993.2 hPa | 0 mm | - | - | - |
| 1777918571 | 19.44° C | 60% | 993.2 hPa | 0 mm | - | - | - |
| 1777917967 | 20° C | 57% | 993.2 hPa | 0 mm | - | - | - |
| 1777917364 | 20° C | 56% | 993.1 hPa | 0 mm | - | - | - |
| 1777916760 | 20.56° C | 56% | 993.1 hPa | 0 mm | - | - | - |
| 1777916156 | 21.11° C | 54% | 993.1 hPa | 0 mm | - | - | - |
| 1777915552 | 21.11° C | 54% | 993 hPa | 0 mm | - | - | - |
| 1777914948 | 21.11° C | 53% | 993 hPa | 0 mm | - | - | - |
| 1777914345 | 21.67° C | 54% | 993.1 hPa | 0 mm | - | - | - |
| 1777913741 | 21.67° C | 54% | 993.2 hPa | 0 mm | - | - | - |
| 1777913137 | 21.67° C | 54% | 993.1 hPa | 0 mm | - | - | - |
| 1777912533 | 21.67° C | 53% | 993.2 hPa | 0 mm | - | - | - |
| 1777911929 | 21.67° C | 53% | 993.2 hPa | 0 mm | - | - | - |
| 1777911326 | 21.67° C | 52% | 993.2 hPa | 0 mm | - | - | - |
* Rain latest hour (hover to see other rain measurements)
** Current wind speed in m/s (hover to see current wind gust speed)